Location: Unspecified
(0.0000°N, 0.0000°E)
Time: 03:34:32
(UTC+00:00)

A-11 Canister half - Pass Details

Date: 23 April 2026
Orbit: 1523 x 1685 km, 47.3° (Epoch: 13 May)

Event Time Altitude Azimuth Distance (km) Brightness Sun altitude
Rises 19:14:15 0° 213° (SSW) 4,705 11.8 -18.5°
Reaches altitude 10° 19:17:19 10° 210° (SSW) 3,737 11.2 -19.3°
Maximum altitude 19:26:43 67° 129° (SE) 1,700 8.9 -21.5°
Drops below altitude 10° 19:36:25 10° 48° (NE) 3,854 10.8 -23.9°
Enters shadow 19:36:44 - 48° (NE) 3,954 10.8 -24.0°
Sets 19:39:37 0° 46° (NE) 4,860 - -24.7°
